Dewpoint
71 72 72 72 72 73 73 73 72 72 71 72 70 70 70 71 70 70 71 71 71 72 71 70 72 71 71 71 70 71 72 73 73 74 74 73 74 75 76 75 74 74 74 73 73 74 74 74 75 74 75 72 73 72 70 69 69 68 67 70 70 73 70 68 67 68 71 74 72 71 71 72 70 71 71 70 70 71 71 70 71 70 69 69 68
71 72 72 71 71 72 72 73 73 72 70 71 71 70 70 70 69 71 69 70 71 72 72 71 71 70 70 69 71 70 72 73 73 73 73 74 73 73 75 76 76 76 75 75 75 74 74 74 74 74 75 72 71 69 68 68 68 67 67 67 69 70 70 70 69 68 67 72 72 74 72 73 71 72 72 71 71 72 70 70 70 69 68 69 69
71 71 71 71 71 71 71 72 72 72 70 70 70 70 69 71 70 70 68 70 70 72 72 70 72 71 70 70 70 73 72 73 73 74 73 74 73 72 72 74 76 76 75 74 73 74 74 74 74 74 73 72 72 71 70 70 71 70 72 71 71 70 73 72 72 70 69 70 73 71 72 73 72 72 73 73 73 72 71 70 70 70 70 69 69
70 71 71 70 70 70 70 71 71 71 69 70 69 69 69 70 72 71 69 69 69 71 71 70 71 72 71 72 74 74 75 74 75 74 74 74 74 73 73 75 75 74 73 74 74 73 72 72 71 72 72 72 74 73 72 70 69 70 73 73 72 73 74 74 73 70 71 70 72 72 74 73 74 73 73 73 72 72 71 72 72 70 70 70 70
70 70 70 69 69 69 70 69 69 70 69 69 68 68 69 69 70 70 70 70 71 71 71 72 73 72 71 74 75 75 75 75 75 73 74 75 75 75 74 74 74 74 75 75 76 74 74 73 74 73 73 71 71 71 72 70 70 73 72 73 73 76 74 74 74 74 72 71 72 73 74 73 74 73 74 73 73 72 72 72 71 71 72 72 71
69 69 69 68 67 68 69 68 68 68 68 68 69 69 69 69 69 70 70 69 71 71 70 70 74 72 72 74 75 75 75 75 75 74 73 74 75 74 74 75 75 74 74 74 74 74 73 73 73 73 73 72 71 71 73 73 76 74 73 74 75 76 74 74 75 74 74 74 73 72 72 71 71 73 73 73 72 71 69 70 72 73 73 72 72
68 68 68 67 67 67 68 68 67 67 68 67 68 68 69 69 69 69 70 70 70 69 70 70 73 73 73 74 74 75 75 75 75 74 74 73 73 73 73 74 74 75 74 74 73 72 72 71 73 74 73 73 73 72 72 73 74 72 74 74 74 75 75 74 73 72 72 72 73 73 72 73 72 69 70 71 72 72 71 71 70 71 73 72 71
68 68 68 69 67 68 68 67 66 66 67 67 67 67 67 68 68 69 70 70 69 68 68 70 71 72 72 72 73 75 75 75 75 75 74 73 75 74 73 74 73 74 74 73 73 72 71 70 69 70 71 74 71 72 73 73 75 74 75 73 75 74 73 73 73 73 73 73 71 71 71 70 71 71 73 71 68 68 70 71 70 71 71 72 72
68 68 67 68 70 69 71 70 68 68 68 66 66 66 67 67 68 69 69 69 68 68 68 68 70 72 73 72 73 73 75 75 77 76 76 76 76 75 75 74 74 74 73 73 72 73 72 69 69 69 73 76 75 77 77 76 73 73 75 75 74 74 74 74 73 72 71 71 71 71 70 69 68 68 67 66 66 66 69 72 71 72 72 73 73
70 69 68 69 71 70 71 72 71 71 73 69 65 65 68 68 68 68 69 68 69 69 68 69 68 70 71 72 73 72 73 75 77 76 78 77 75 75 75 74 74 74 74 74 73 71 70 69 72 74 72 71 72 75 78 77 77 73 73 72 73 72 72 71 71 71 70 69 70 69 68 67 67 68 68 68 68 72 72 72 72 73 73 72 72
72 71 74 73 71 70 69 70 69 69 71 72 74 71 68 69 68 69 69 69 69 70 68 68 67 67 69 72 72 71 70 69 68 66 69 72 76 76 75 75 74 74 74 73 72 73 72 70 70 76 77 76 75 79 79 77 76 75 74 75 76 73 71 70 70 71 70 70 70 70 68 68 68 69 70 69 73 72 72 73 72 72 71 70 70
70 70 71 72 72 71 71 70 70 70 70 71 72 73 75 75 74 74 71 68 69 69 69 69 69 69 68 70 70 67 66 65 63 65 66 67 71 76 75 75 75 74 73 72 72 72 71 70 68 74 75 76 74 74 77 78 76 76 76 76 76 75 75 72 70 69 69 67 67 68 70 69 70 71 72 73 73 72 73 72 71 71 71 71 70
70 71 71 71 70 70 71 71 70 70 70 71 71 71 72 74 74 74 74 72 69 68 69 70 70 70 70 69 66 65 63 62 62 63 64 64 66 73 73 72 70 70 70 70 71 73 73 73 71 70 69 74 72 71 72 73 76 77 76 76 76 75 71 69 71 72 71 71 71 70 70 71 71 72 75 73 73 71 71 71 72 72 72 71 71
71 71 71 71 70 70 70 71 70 70 71 70 70 70 71 73 74 74 73 71 69 69 69 70 70 69 67 65 64 63 62 61 59 60 61 63 64 69 72 71 70 69 73 74 74 74 74 73 71 68 66 66 66 69 71 72 72 73 74 74 75 76 75 72 71 69 71 71 70 70 71 72 72 73 75 73 72 71 71 71 72 71 71 71 72
72 71 71 71 70 70 70 70 70 70 71 70 69 69 71 71 72 73 72 71 71 71 71 71 70 68 65 63 61 60 58 57 57 59 59 61 63 70 74 72 70 73 74 73 73 73 73 70 68 66 65 64 65 65 68 71 72 73 74 74 74 73 72 72 73 72 73 73 72 72 73 73 72 72 72 72 72 72 73 72 72 72 72 73 72
71 70 70 70 70 70 70 69 69 70 71 71 69 69 70 71 72 73 72 71 71 71 71 72 71 68 66 64 62 59 57 56 56 57 58 59 63 73 74 73 73 73 72 71 71 70 70 70 67 66 65 65 63 62 64 68 73 73 73 73 72 72 73 74 70 71 73 72 72 72 72 72 68 72 71 70 71 71 72 73 73 71 71 70 70
69 70 70 71 71 70 70 70 69 70 71 71 70 70 71 72 74 73 71 71 70 70 70 71 70 68 66 63 60 59 58 56 54 54 56 59 69 74 74 74 73 72 71 71 71 70 70 68 67 66 65 64 62 59 61 69 71 71 71 71 72 72 71 69 68 67 66 65 65 66 66 65 65 63 63 64 68 70 72 71 70 71 70 68 69
69 70 70 71 71 70 70 70 69 70 71 71 71 71 72 73 72 72 70 70 69 69 68 68 67 67 65 62 60 58 57 56 53 53 56 60 70 72 74 73 72 72 71 70 69 69 71 71 69 66 64 63 58 59 61 69 69 69 69 69 70 70 67 68 68 68 67 67 67 68 68 69 67 66 67 68 70 72 71 69 71 71 69 69 68
69 68 68 69 70 71 70 70 70 70 70 70 70 71 72 71 71 70 70 69 69 69 68 67 66 66 65 64 63 60 59 59 53 53 55 61 69 73 73 72 72 72 71 70 68 67 67 68 68 66 64 61 56 57 59 66 66 68 69 69 68 68 66 66 67 69 70 71 71 73 73 73 73 72 72 73 74 74 73 71 71 69 68 69 69
69 69 69 69 70 70 71 71 71 70 70 69 69 70 71 71 70 70 70 70 69 68 67 66 64 64 64 62 61 60 59 58 56 51 52 55 62 71 71 71 71 71 71 71 68 67 66 65 64 58 57 56 54 54 55 58 64 67 66 65 66 65 64 64 68 70 70 71 71 72 73 73 72 73 73 72 73 73 70 71 71 70 69 69 69
69 69 68 69 70 69 69 69 69 70 69 68 69 69 70 70 70 70 70 69 67 65 64 63 63 62 62 62 62 61 59 58 57 51 51 52 56 64 68 69 69 69 70 70 69 66 65 65 64 59 54 54 53 52 52 55 61 67 64 63 63 65 62 63 66 70 68 69 69 68 68 67 67 66 66 66 67 68 69 69 71 71 69 69 68
66 67 68 68 68 68 68 68 68 68 68 67 67 67 67 68 68 67 67 66 64 63 62 62 61 61 61 62 61 62 62 61 59 55 52 51 52 55 61 62 66 69 69 68 67 66 66 65 62 59 52 52 51 50 51 53 58 67 63 56 54 56 61 65 66 68 67 68 67 66 65 65 64 64 64 64 66 67 66 64 61 64 66 67 68
64 65 65 66 67 68 68 67 67 67 67 66 66 66 66 66 65 65 65 64 63 61 61 61 60 59 60 60 61 61 61 62 61 61 55 51 51 52 53 57 59 67 64 62 62 63 64 64 61 60 51 49 48 50 51 52 62 61 54 52 54 56 64 65 66 65 64 63 63 63 63 62 62 61 62 63 65 64 61 59 59 60 63 64 65
64 64 65 64 64 65 65 65 65 66 66 65 65 65 65 65 65 65 63 62 61 61 61 60 60 59 60 61 61 62 62 62 62 61 60 54 52 52 52 53 55 58 58 56 55 56 58 60 60 53 50 48 49 50 51 55 57 52 50 53 57 64 63 62 62 62 61 60 61 60 60 60 60 59 61 65 63 61 60 59 58 60 61 61 61
62 63 64 64 62 62 63 64 64 65 65 64 63 64 63 63 63 63 63 62 61 60 60 60 59 59 60 61 62 63 64 63 64 63 61 59 54 53 54 56 55 54 56 57 60 60 58 53 51 51 51 51 51 52 56 60 56 55 55 56 67 61 60 60 59 58 57 59 59 58 58 59 60 61 62 64 61 60 59 60 60 61 61 60 60
62 61 61 60 60 60 60 59 59 59 60 62 64 64 64 64 63 63 63 62 62 62 62 62 61 61 61 61 62 63 62 58 57 56 60 58 58 56 55 57 59 59 58 57 58 57 55 56 57 56 57 57 63 64 65 65 61 61 60 62 60 58 56 55 56 56 56 57 59 57 58 59 59 61 59 60 58 59 59 59 59 59 58 58 58
62 60 59 57 56 57 57 57 57 58 59 60 60 59 59 58 58 59 59 62 62 62 62 62 62 61 61 61 62 59 54 53 52 53 54 53 53 54 53 53 56 56 56 53 54 54 59 63 62 59 58 58 59 61 59 61 62 56 53 56 58 57 57 56 55 56 58 58 57 56 58 58 60 59 56 57 58 57 59 60 59 58 59 58 58
60 59 57 56 56 58 59 61 57 54 53 53 55 59 57 56 56 55 55 56 60 62 62 62 61 60 59 60 58 53 52 51 51 51 50 52 51 51 51 52 50 51 51 50 50 54 59 63 62 64 62 59 61 60 59 60 57 56 55 55 55 57 59 60 60 56 56 56 54 56 58 58 57 55 56 56 57 56 57 59 59 57 59 59 55
58 56 57 59 59 60 57 56 54 53 51 51 50 50 52 56 56 55 53 52 56 59 59 58 57 56 58 58 53 52 51 50 52 47 50 48 51 50 49 48 48 49 53 49 53 58 60 63 61 54 54 54 53 54 54 54 55 55 55 55 54 54 54 54 55 55 55 53 53 55 57 56 55 55 55 56 56 56 56 56 56 57 57 56 55
57 57 58 58 59 58 57 56 54 53 51 50 50 50 50 44 47 54 54 53 50 49 52 57 56 54 53 52 53 50 49 50 48 42 41 41 41 42 43 41 42 46 48 47 53 57 60 55 54 54 53 53 53 53 53 54 54 54 54 56 55 53 53 54 54 53 53 53 53 53 56 54 53 53 54 55 54 55 54 56 55 55 55 54 53
60 58 59 59 59 59 58 56 55 54 53 51 51 51 50 49 43 43 48 49 47 44 44 46 47 50 54 50 50 47 47 44 41 41 40 40 40 40 40 40 41 41 43 53 56 54 54 53 53 54 54 53 54 53 53 54 54 53 53 53 53 53 54 52 51 52 52 52 52 54 55 53 53 54 52 53 53 53 52 54 53 53 53 51 50
60 59 59 59 59 59 57 58 58 56 55 53 52 52 50 49 49 45 42 44 44 43 43 44 44 46 48 50 52 50 45 42 40 39 38 39 40 40 40 40 41 42 43 48 56 54 53 52 52 52 53 53 54 55 54 53 53 53 52 53 52 53 54 52 51 51 52 52 52 54 54 53 53 53 51 52 52 51 51 50 50 51 50 49 49
60 61 62 61 61 61 59 58 58 57 57 56 55 53 51 50 48 48 48 43 41 41 42 42 42 43 43 44 47 47 47 44 41 40 39 39 39 39 39 41 42 43 51 53 53 53 53 53 52 52 52 52 52 52 52 52 52 52 52 51 50 50 54 53 52 52 52 53 53 53 53 53 52 51 51 50 49 48 49 49 48 48 47 46 48
60 60 60 60 59 59 60 60 59 60 60 57 56 55 55 53 50 50 49 50 49 46 44 41 40 41 40 40 41 41 40 40 38 37 39 40 40 40 40 44 42 42 49 52 52 51 52 51 52 51 51 52 52 52 52 52 53 52 52 51 50 50 53 52 51 52 53 52 51 52 53 51 51 49 48 48 48 48 47 47 46 45 45 45 46
60 61 61 61 58 59 59 59 59 60 60 58 58 59 57 57 56 54 53 53 52 49 49 51 48 46 47 44 39 39 39 38 38 37 38 39 40 40 42 53 55 52 50 51 52 51 51 51 50 51 50 50 51 52 51 51 51 52 50 50 50 50 53 50 51 53 50 49 50 49 50 49 48 48 48 47 46 46 46 46 45 45 45 46 46
59 60 60 59 58 57 56 57 57 57 58 58 58 57 57 58 58 57 56 58 55 52 52 50 50 49 43 39 37 38 39 38 38 38 38 38 39 42 53 52 51 51 51 50 51 52 52 51 51 51 50 50 50 50 50 50 50 51 49 49 50 52 50 50 51 49 49 47 47 46 44 44 44 45 45 45 45 44 44 44 44 45 46 46 46
55 56 56 59 59 58 58 57 56 56 59 59 58 56 57 56 56 56 58 57 55 54 51 51 49 49 51 54 50 42 40 39 40 40 39 39 38 50 52 53 53 53 54 52 53 52 50 50 50 50 51 50 50 49 50 50 50 50 51 50 50 49 48 50 49 51 47 46 44 43 43 43 43 43 43 43 43 42 43 44 44 44 45 46 47
56 56 56 57 58 57 57 57 58 57 58 56 55 56 58 56 56 56 55 57 56 54 51 51 52 50 50 51 53 51 53 45 45 46 46 46 50 53 53 54 53 51 51 50 49 49 48 48 49 48 48 49 48 47 47 47 48 48 48 48 48 48 48 47 47 46 46 43 43 43 44 42 42 42 43 41 41 41 41 42 41 41 42 44 43
55 56 57 57 58 57 56 56 56 55 55 56 55 54 55 54 54 55 54 53 57 55 54 53 53 54 53 54 51 54 53 49 48 50 53 53 54 51 50 50 50 49 49 48 50 49 47 48 50 49 48 47 47 45 45 46 46 46 46 46 46 45 45 44 44 44 44 43 42 42 42 42 42 41 42 41 41 41 40 40 40 40 40 40 40
54 54 55 56 55 56 56 56 56 56 58 57 54 55 56 55 54 53 53 52 53 50 50 50 48 49 49 48 48 48 47 48 47 50 54 51 49 48 48 49 49 48 47 47 47 46 47 46 46 45 45 45 45 45 45 45 45 45 44 45 44 43 43 43 42 42 42 43 42 42 42 42 42 42 41 41 41 40 40 39 40 40 40 40 41
53 53 56 56 56 55 56 55 54 56 55 54 55 53 53 53 52 54 55 52 53 52 51 48 46 45 44 44 44 45 45 45 45 52 52 50 48 48 48 48 48 47 48 48 48 47 46 45 45 44 44 45 45 45 44 44 43 43 44 44 43 44 42 42 42 41 41 42 42 42 41 41 41 40 39 40 40 40 40 40 40 39 40 40 41
52 53 53 52 52 54 54 53 52 51 51 55 53 53 54 53 54 54 54 55 53 51 49 47 45 47 43 40 38 41 44 46 49 49 48 49 48 47 47 46 46 46 45 45 45 45 45 44 44 43 43 43 43 44 43 42 43 42 43 42 42 42 42 41 41 41 41 40 40 40 39 40 40 40 39 40 38 38 38 38 38 39 39 40 40
53 52 53 53 52 53 53 51 51 50 51 52 53 55 56 52 50 51 51 51 52 50 48 47 47 47 45 44 44 44 45 49 53 49 48 47 46 47 45 45 44 44 44 44 44 44 43 43 42 42 43 43 43 43 42 42 42 42 42 42 41 41 40 41 41 41 39 39 39 39 39 39 40 38 38 39 38 38 37 37 38 38 38 38 39
54 51 53 54 53 52 52 51 52 52 53 54 55 53 52 50 51 51 49 50 50 50 48 47 47 44 44 44 45 44 48 45 45 46 46 47 45 45 44 44 45 44 44 44 43 43 42 42 42 42 42 42 43 43 42 42 41 41 40 40 41 40 39 40 40 38 37 36 37 37 37 39 39 38 39 39 38 38 38 38 38 38 38 38 38
50 49 49 48 49 51 50 51 51 51 50 52 49 50 52 47 48 48 50 49 52 49 49 51 51 48 48 49 50 49 46 46 48 48 44 44 44 43 43 43 43 43 43 44 43 43 42 42 42 42 42 41 41 42 42 42 41 40 39 38 37 37 38 39 39 37 37 38 37 37 38 38 36 36 37 38 39 38 38 38 37 39 38 38 38
49 50 50 49 50 50 50 48 53 51 50 48 48 47 47 47 47 49 51 49 50 50 51 50 49 48 50 47 46 46 44 44 44 44 45 44 43 43 43 42 42 42 42 42 42 43 42 42 42 42 41 41 41 41 41 42 41 40 39 39 38 38 39 40 40 39 38 38 38 37 37 37 36 36 38 38 37 37 37 37 38 38 38 38 39
48 48 50 50 50 49 48 50 50 49 48 47 47 45 45 46 46 51 53 50 48 49 47 44 42 42 45 45 44 43 44 43 43 44 43 43 42 42 42 42 42 41 41 42 42 41 42 42 42 41 41 41 41 42 41 40 40 39 40 38 38 38 39 40 38 38 38 39 39 37 37 37 37 37 38 38 38 37 38 37 38 38 38 38 39
46 47 47 48 48 47 49 47 48 51 47 48 47 47 47 46 47 48 46 44 43 45 46 47 44 44 45 44 44 43 44 44 45 43 42 42 41 41 41 41 42 41 42 41 41 41 42 41 41 42 42 42 42 41 41 40 39 38 38 39 38 37 39 39 37 37 37 38 38 37 37 36 36 37 37 37 37 37 37 37 38 38 38 38 39
49 49 47 47 48 47 48 49 48 46 47 46 47 48 46 46 47 46 45 44 41 42 45 43 41 42 42 42 43 44 45 44 41 40 41 41 41 41 41 42 42 40 40 40 40 40 40 41 44 42 41 41 41 41 40 40 39 39 38 38 38 39 37 38 37 36 36 37 37 36 36 36 37 37 37 37 37 37 37 37 37 38 40 41 41
49 49 52 51 48 50 50 48 46 45 45 47 46 46 47 46 44 43 40 41 42 43 42 42 43 42 42 42 43 43 43 42 40 40 40 40 40 42 41 41 40 39 39 39 40 40 39 40 40 41 41 41 41 40 40 40 39 38 38 37 38 36 36 37 38 37 36 36 36 36 37 37 37 37 36 37 37 37 37 38 38 39 40 41 41
48 48 49 48 49 49 50 47 44 44 46 46 44 42 43 42 43 43 43 42 42 42 43 40 40 41 41 41 43 41 40 40 40 40 40 39 39 39 39 40 39 39 39 39 39 40 40 39 39 40 40 40 40 40 39 39 39 38 38 37 35 33 33 35 36 34 35 36 36 37 38 38 37 37 37 37 37 37 39 39 40 40 41 41 41